FLOCK 2K-16

Last updated on Wed Feb 14 2018 16:20:54 GMT+0000 (Coordinated Universal Time)

1 42889U 17042BS 18045.22473275 .00002263 00000-0 67509-4 0 9999 2 42889 96.9929 308.0998 0012177 175.9373 184.1973 15.35547562 32761
UTC large
Height (km)
Speed (km/s)
/
Latitude / Longitude
Inclination (degrees)
Orbital Period (minutes)
Azimuth
Elevation
Range (km)
Doppler Factor

Next 0 passes for location: London (51.5072 / 0.1276)

Sorry there are no passes over London.
FLOCK 2K-16